• Join FlightAware (Why Join?)
  • Login
  • US Flag 
04:43AM EST


 

Airport Tracker/Info


-or-


 

Live Flight TrackerFlight Track Log ✈ N605TQ ✈ 10-May-2014 ✈ MYCC - KPIE

Flight Track Log - Related Links

Times and Time Zones

All times are in EDT time to prevent confusion due to time zone crossing. See the N605TQ flight status page for this flight to view local times or setup timezone preferences in your user account.

Time Position Orientation Groundspeed Altitude Reporting Facility
EDT Latitude Longitude Course Direction KTS MPH feet Rate Location/Type
04:23PM 25.6472 -79.2781 353° North 184 212 4,100  Level Miami Center
04:24PM 25.7017 -79.2856 353° North 190 219 6,300 1,887 Climbing Miami Center
04:25PM 25.7544 -79.2992 347° North 186 214 8,000 1,258 Climbing Miami Center
04:26PM 25.8192 -79.3142 348° North 229 264 8,900 968 Climbing Miami Center
04:27PM 25.8864 -79.3278 322° Northwest 230 265 10,000 1,024 Climbing Miami Center
04:28PM 25.8821 -79.3680 322° Northwest  Level FlightAware Approximate
04:28PM 25.9522 -79.3394 351° North 234 269 11,000  Level Miami Center
04:29PM 26.0089 -79.3494 351° North 239 275 12,100 968 Climbing Miami Center
04:30PM 26.0869 -79.3617 352° North 231 266 13,000 968 Climbing Miami Center
04:31PM 26.1494 -79.3856 341° North 241 277 14,100 1,355 Climbing Miami Center
04:32PM 26.2075 -79.4197 332° Northwest 220 253 15,800 1,597 Climbing Miami Center
04:33PM 26.2561 -79.4494 331° Northwest 205 236 17,400 1,065 Climbing Miami Center
04:35PM 26.3069 -79.4803 331° Northwest 199 229 18,000 290 Climbing Miami Center
04:36PM 26.3639 -79.5219 327° Northwest 248 285 18,000  Level Miami Center
04:37PM 26.3947 -79.5942 295° West 263 303 18,000  Level Miami Center
04:38PM 26.4294 -79.6733 296° West 263 303 18,000  Level Miami Center
04:39PM 26.4606 -79.7481 295° West 264 304 18,000  Level Miami Center
04:40PM 26.4956 -79.8272 296° West 264 304 18,000  Level Miami Center
04:41PM 26.5269 -79.9031 295° West 265 305 18,000  Level Miami Center
04:42PM 26.5589 -79.9778 296° West 266 306 18,000  Level Miami Center
04:43PM 26.5939 -80.0592 296° West 267 307 18,000  Level Miami Center
04:44PM 26.6256 -80.1347 295° West 268 308 18,000  Level Miami Center
04:45PM 26.6594 -80.2150 295° West 268 308 18,000  Level Miami Center
04:46PM 26.6911 -80.2897 295° West 268 308 18,000  Level Miami Center
04:47PM 26.7244 -80.3703 295° West 266 306 18,000  Level Miami Center
04:48PM 26.7553 -80.4442 295° West 266 306 18,000  Level Miami Center
04:49PM 26.7883 -80.5225 295° West 266 306 18,000  Level Miami Center
04:50PM 26.8214 -80.5994 296° West 264 304 18,000  Level Miami Center
04:51PM 26.8514 -80.6714 295° West 264 304 18,000  Level Miami Center
04:52PM 26.8836 -80.7500 295° West 264 304 18,000  Level Miami Center
04:53PM 26.9158 -80.8283 295° West 265 305 18,000 -145 Level Miami Center
04:54PM 26.9489 -80.9061 296° West 265 305 17,700 -439 Descending Miami Center
04:55PM 26.9836 -80.9894 295° West 279 321 17,100 -634 Descending Miami Center
04:56PM 27.0161 -81.0672 295° West 281 323 16,400 -532 Descending Miami Center
04:57PM 27.0500 -81.1506 295° West 282 325 16,000 -194 Descending Miami Center
04:58PM 27.0828 -81.2286 295° West 268 308 16,000  Level Miami Center
04:59PM 27.1142 -81.3069 294° West 266 306 16,000 -48 Level Miami Center
05:00PM 27.1422 -81.3719 296° West 265 305 15,900  Descending Miami Center
05:01PM 27.1717 -81.4464 294° West 262 302 16,000 48 Climbing Miami Center
05:02PM 27.2078 -81.5342 295° West 260 299 16,000  Level Miami Center
05:03PM 27.2383 -81.6078 295° West 261 300 16,000 -484 Level Miami Center
05:04PM 27.2692 -81.6850 294° West 270 311 15,000 -968 Descending Miami Center
05:05PM 27.3031 -81.7664 295° West 281 323 14,000 -968 Descending Miami Center
05:07PM 27.3358 -81.8469 295° West 283 326 13,000 -1,065 Descending Miami Center
05:08PM 27.3689 -81.9283 295° West 283 326 11,800 -1,306 Descending Miami Center
05:09PM 27.4014 -82.0094 294° West 283 326 10,300 -1,597 Descending Miami Center
05:10PM 27.4406 -82.1056 295° West 282 325 8,500 -1,161 Descending Miami Center
05:11PM 27.4850 -82.1739 306° West 269 310 7,900 -339 Descending Miami Center
05:12PM 27.5294 -82.2367 309° West 262 302 7,800 -919 Descending Miami Center
05:13PM 27.5536 -82.3164 289° West 269 310 6,000 -1,561 Descending Miami Center
05:14PM 27.5722 -82.3972 285° West 268 308 4,600 -1,024 Descending Miami Center
05:15PM 27.5967 -82.4689 291° West 252 290 3,900 -290 Descending Miami Center
05:16PM 27.6264 -82.5381 296° West 249 287 4,000 48 Climbing Miami Center
05:17PM 27.6672 -82.6161 301° West 247 284 4,000  Level Miami Center
05:18PM 27.7261 -82.6606 326° Northwest 251 289 4,000 -435 Level Miami Center
05:19PM 27.7908 -82.6964 334° Northwest 257 296 3,100 -484 Descending Miami Center
05:20PM 27.8553 -82.7264 338° Northwest 257 296 3,000 -97 Descending Miami Center
05:21PM 27.9097 -82.7486 340° North 230 265 2,900 -726 Descending Miami Center
05:22PM 27.9631 -82.7375 10° North 209 241 1,500 -1,113 Descending Miami Center
05:23PM 27.9517 -82.6961 107° East 192 221 600 -871 Descending Miami Center
05:25PM 27.9100 -82.6875 139° Southeast  Level Estimated
05:32PM 27.9100 -82.6875 139° Southeast  Level Estimated
05:33PM 27.9100 -82.6875 139° Southeast  Level Estimated